STARLINK-32248, 61219

Orbit data source: Space-Track

STARLINK-32248, 61219 is a payload satellite owned by SpaceX/Seattle (US) in LEO that was launched on Fri, 20 Sep 2024 UTC via an FALCON 9 launch vehicle from the Air Force Western Test Range (AFWTR). Payload-class satellites include a variety of spacecraft equipped with specific instruments for various scientific and technological missions. These include communications satellites like Starlink; space stations such as the ISS; scientific satellites like the Hubble; Earth observation satellites from companies like Planet Labs, Umbra, and HawkEye 360; GPS; miniature CubeSats for education and research; and military/defense satellites.

Loading next visibility...
Identifier
61219, 2024-171V
Orbit
LEO
Country
Flag of USUS
Related business
Manufacturer
SpaceX/Seattle
Mission
Operational Commercial Communications
Bus & Motor
STARLINK V2M, Unknown motor
Mass
730 kg wet, ~700 kg dry
Launch date (UTC)
2024-09-20 (2 years ago)
Launch vehicle
FALCON 9
Launch site
Air Force Western Test Range (AFWTR)
Object type
Payload
Rocket body
Debris
Shape & HBR
Box + 2 Pan, 17.7 m
Radar Cross Section
33.884 m², Large (>1 m²)

Expand to show TLE details & history
Last TLE update: 11 hours ago

TLE from 11 hours ago
0 STARLINK-32248
1 61219U 24171V   26171.38848843  .00001738  00000-0  67753-4 0  9998
2 61219  53.1591 205.3087 0001172  91.2437 268.8699 15.31702135 99001
Epoch: 2026-06-20T09:19Z
TLE epoch observation values (Epoch: 2026-06-20T09:19:25.400Z)
Latitude
0.00001°
Longitude
156.84905°
Altitude
471.65 km
Speed
7.631 km/s
True Right ascension
13h 41m 14s
True Declination
0° 00' 00"
Sunlit
Object was in full shadow at epoch
Visualization orbit readout
Latitude
Unknown
Longitude
Unknown
Altitude
Unknown
Speed
Unknown
Apparent Right ascension
Unknown
Apparent Declination
Unknown
Sunlit
N/A
Visualization observer readout
Local Sidereal Time
07:17:53
Azimuth
Unknown
Elevation
Unknown
Doppler factor
Unknown
Orbital elements
Apogee altitude
471.793 km
Perigee altitude
470.188 km
Semi-major axis
6,849.127 km
Eccentricity
0.00012
Inclination
53.1591°
RAAN
205.3087°
Arg. of periapsis
91.2437°
True anomaly
268.85647°
Mean anomaly
268.8699°
Eccentric anomaly
268.86319°
Mean motion
3.82904 °/min
Orbital period
94.02 mins
BSTAR
0.000067753
Loading maneuver chart data...
Computing Atmospheric mass density...
Loading historical data...
Loading historical data...
Loading historical data...
Loading historical data...
Loading historical data...
Loading historical data...
Loading historical data...

Documentation

Showing up to 5 results
|